When you browse on this site, cookies collect data to enhance your experience and personalize the content and advertising you see.
Visit our Privacy Policy to learn more. By continuing to use the site, you agree to this use of cookies and data.
  • Em Portugal
  • Lista de países
  • Para 7 dias
  • Temperatura da água
  • Mapa do tempo
  • Widgets de tempo
  • user-avatar
    Iniciar Sessão

    Previsão horária em Viana do Castelo

    Hoje, 7 Abril, Terça-feira

    Tempo Temperatura Precipitação Vento Pressão Humidade
    00:00 +13°C° 0.3 mm 3 m/s 759 mmHg 92%
    01:00 +13°C° 0.3 mm 3 m/s 759 mmHg 92%
    02:00 +13°C° 0.3 mm 3 m/s 759 mmHg 93%
    03:00 +13°C° 0.5 mm 3 m/s 759 mmHg 93%
    04:00 +13°C° 0.5 mm 3 m/s 759 mmHg 93%
    05:00 +13°C° 0 mm 3 m/s 759 mmHg 94%
    06:00 +14°C° 0.2 mm 3 m/s 759 mmHg 92%
    07:00 +16°C° 0.2 mm 3 m/s 760 mmHg 91%
    08:00 +16°C° 0.2 mm 3 m/s 760 mmHg 89%
    09:00 +17°C° 0.2 mm 3 m/s 760 mmHg 87%
    10:00 +18°C° 0.2 mm 4 m/s 760 mmHg 85%
    11:00 +19°C° 0 mm 5 m/s 760 mmHg 82%
    12:00 +19°C° 0.2 mm 4 m/s 760 mmHg 81%
    13:00 +20°C° 0.2 mm 4 m/s 760 mmHg 79%
    14:00 +20°C° 0.2 mm 4 m/s 760 mmHg 78%
    15:00 +19°C° 0 mm 3 m/s 760 mmHg 80%
    16:00 +18°C° 0 mm 3 m/s 760 mmHg 83%
    17:00 +18°C° 0 mm 2 m/s 760 mmHg 85%
    18:00 +17°C° 0 mm 3 m/s 761 mmHg 89%
    19:00 +14°C° 0 mm 3 m/s 761 mmHg 92%
    20:00 +13°C° 0 mm 3 m/s 762 mmHg 95%
    21:00 +13°C° 0 mm 3 m/s 762 mmHg 95%
    22:00 +13°C° 0 mm 3 m/s 762 mmHg 95%
    23:00 +13°C° 0 mm 3 m/s 762 mmHg 95%

    Amanhã, 8 Abril, Quarta-feira

    Tempo Temperatura Precipitação Vento Pressão Humidade
    00:00 +13°C° 0 mm 2 m/s 761 mmHg 95%
    01:00 +13°C° 0 mm 2 m/s 761 mmHg 96%
    02:00 +13°C° 0 mm 2 m/s 761 mmHg 96%
    03:00 +13°C° 0 mm 2 m/s 761 mmHg 96%
    04:00 +13°C° 0 mm 2 m/s 761 mmHg 96%
    05:00 +13°C° 0 mm 2 m/s 761 mmHg 95%
    06:00 +15°C° 0 mm 2 m/s 761 mmHg 91%
    07:00 +16°C° 0 mm 2 m/s 761 mmHg 87%
    08:00 +18°C° 0 mm 2 m/s 761 mmHg 83%
    09:00 +18°C° 0 mm 2 m/s 761 mmHg 79%
    10:00 +19°C° 0 mm 3 m/s 761 mmHg 75%
    11:00 +20°C° 0 mm 3 m/s 761 mmHg 71%
    12:00 +19°C° 0 mm 3 m/s 761 mmHg 73%
    13:00 +19°C° 0 mm 2 m/s 761 mmHg 74%
    14:00 +19°C° 0 mm 2 m/s 761 mmHg 76%
    15:00 +18°C° 0 mm 2 m/s 761 mmHg 79%
    16:00 +18°C° 0 mm 1 m/s 760 mmHg 82%
    17:00 +18°C° 0 mm 1 m/s 760 mmHg 85%
    18:00 +16°C° 0 mm 1 m/s 760 mmHg 87%
    19:00 +15°C° 0 mm 1 m/s 761 mmHg 88%
    20:00 +15°C° 0 mm 1 m/s 761 mmHg 90%
    21:00 +14°C° 0 mm 1 m/s 761 mmHg 90%
    22:00 +14°C° 0 mm 1 m/s 760 mmHg 91%
    23:00 +14°C° 0 mm 1 m/s 760 mmHg 91%

    Depois de amanhã, 9 Abril, Quinta-feira

    Tempo Temperatura Precipitação Vento Pressão Humidade
    00:00 +14°C° 0 mm 1 m/s 760 mmHg 91%
    01:00 +14°C° 0 mm 2 m/s 759 mmHg 90%
    02:00 +13°C° 0 mm 2 m/s 759 mmHg 90%
    03:00 +13°C° 0 mm 2 m/s 759 mmHg 89%
    04:00 +13°C° 0 mm 2 m/s 758 mmHg 89%
    05:00 +13°C° 0 mm 2 m/s 758 mmHg 88%
    06:00 +14°C° 0.1 mm 2 m/s 758 mmHg 85%
    07:00 +15°C° 0.1 mm 2 m/s 758 mmHg 82%
    08:00 +17°C° 0.1 mm 2 m/s 758 mmHg 79%
    09:00 +16°C° 0.8 mm 2 m/s 758 mmHg 84%
    10:00 +14°C° 0.8 mm 3 m/s 759 mmHg 89%
    11:00 +14°C° 0.8 mm 3 m/s 759 mmHg 94%
    12:00 +14°C° 1.5 mm 3 m/s 758 mmHg 94%
    13:00 +14°C° 1.5 mm 3 m/s 758 mmHg 95%
    14:00 +14°C° 1.5 mm 3 m/s 758 mmHg 96%
    15:00 +14°C° 0.4 mm 3 m/s 758 mmHg 96%
    16:00 +14°C° 0.4 mm 3 m/s 758 mmHg 96%
    17:00 +15°C° 0.4 mm 2 m/s 758 mmHg 96%
    18:00 +15°C° 0.2 mm 2 m/s 758 mmHg 96%
    19:00 +15°C° 0.2 mm 2 m/s 758 mmHg 96%
    20:00 +15°C° 0.2 mm 2 m/s 759 mmHg 95%
    21:00 +15°C° 0 mm 2 m/s 759 mmHg 95%
    22:00 +15°C° 0 mm 1 m/s 759 mmHg 94%
    23:00 +15°C° 0 mm 1 m/s 759 mmHg 94%

    10 Abril, Sexta-feira

    Tempo Temperatura Precipitação Vento Pressão Humidade
    00:00 +15°C° 0 mm 1 m/s 758 mmHg 94%
    01:00 +14°C° 0 mm 0 m/s 758 mmHg 94%
    02:00 +14°C° 0 mm 0 m/s 758 mmHg 94%
    03:00 +14°C° 0 mm 0 m/s 758 mmHg 94%
    04:00 +14°C° 0 mm 0 m/s 758 mmHg 95%
    05:00 +14°C° 0 mm 0 m/s 759 mmHg 95%
    06:00 +15°C° 0 mm 0 m/s 759 mmHg 93%
    07:00 +15°C° 0 mm 0 m/s 759 mmHg 91%
    08:00 +16°C° 0 mm 0 m/s 759 mmHg 89%
    09:00 +18°C° 0.1 mm 1 m/s 760 mmHg 88%
    10:00 +19°C° 0.1 mm 1 m/s 760 mmHg 87%
    11:00 +19°C° 0.1 mm 1 m/s 760 mmHg 87%
    12:00 +18°C° 0.1 mm 2 m/s 760 mmHg 85%
    13:00 +18°C° 0.1 mm 2 m/s 760 mmHg 84%
    14:00 +18°C° 0.1 mm 2 m/s 759 mmHg 83%
    15:00 +18°C° 0 mm 2 m/s 759 mmHg 84%
    16:00 +17°C° 0 mm 2 m/s 759 mmHg 85%
    17:00 +17°C° 0 mm 3 m/s 759 mmHg 86%
    18:00 +16°C° 0 mm 2 m/s 760 mmHg 90%
    19:00 +15°C° 0 mm 2 m/s 760 mmHg 93%
    20:00 +14°C° 0 mm 2 m/s 761 mmHg 97%
    21:00 +13°C° 0 mm 2 m/s 761 mmHg 96%
    22:00 +13°C° 0 mm 1 m/s 761 mmHg 96%
    23:00 +13°C° 0 mm 1 m/s 761 mmHg 96%

    11 Abril, Sábado

    Tempo Temperatura Precipitação Vento Pressão Humidade
    00:00 +13°C° 0 mm 1 m/s 760 mmHg 96%
    01:00 +13°C° 0 mm 1 m/s 760 mmHg 96%
    02:00 +13°C° 0 mm 2 m/s 760 mmHg 96%
    03:00 +13°C° 0 mm 2 m/s 760 mmHg 96%
    04:00 +13°C° 0 mm 1 m/s 760 mmHg 95%
    05:00 +13°C° 0 mm 1 m/s 760 mmHg 95%
    06:00 +15°C° 0 mm 1 m/s 760 mmHg 90%
    07:00 +16°C° 0 mm 1 m/s 760 mmHg 84%
    08:00 +19°C° 0 mm 1 m/s 760 mmHg 79%
    09:00 +20°C° 0 mm 1 m/s 760 mmHg 75%
    10:00 +21°C° 0 mm 1 m/s 760 mmHg 70%
    11:00 +23°C° 0 mm 2 m/s 760 mmHg 66%
    12:00 +21°C° 0.1 mm 2 m/s 760 mmHg 68%
    13:00 +21°C° 0.1 mm 3 m/s 760 mmHg 69%
    14:00 +21°C° 0.1 mm 3 m/s 759 mmHg 71%
    15:00 +20°C° 0.1 mm 3 m/s 759 mmHg 73%
    16:00 +20°C° 0.1 mm 3 m/s 759 mmHg 76%
    17:00 +19°C° 0.1 mm 3 m/s 759 mmHg 79%
    18:00 +18°C° 0 mm 4 m/s 759 mmHg 83%
    19:00 +17°C° 0 mm 4 m/s 760 mmHg 87%
    20:00 +14°C° 0 mm 5 m/s 760 mmHg 91%
    21:00 +14°C° 0 mm 5 m/s 760 mmHg 91%
    22:00 +13°C° 0 mm 4 m/s 760 mmHg 92%
    23:00 +13°C° 0 mm 4 m/s 760 mmHg 92%

    12 Abril, Domingo

    Tempo Temperatura Precipitação Vento Pressão Humidade
    00:00 +13°C° 0 mm 4 m/s 760 mmHg 92%
    01:00 +12°C° 0 mm 4 m/s 759 mmHg 92%
    02:00 +12°C° 0 mm 3 m/s 759 mmHg 92%
    03:00 +12°C° 0 mm 3 m/s 759 mmHg 91%
    04:00 +12°C° 0 mm 3 m/s 759 mmHg 91%
    05:00 +11°C° 0 mm 3 m/s 759 mmHg 91%
    06:00 +14°C° 0 mm 3 m/s 759 mmHg 85%
    07:00 +17°C° 0 mm 3 m/s 759 mmHg 79%
    08:00 +19°C° 0 mm 3 m/s 759 mmHg 73%
    09:00 +20°C° 0 mm 3 m/s 759 mmHg 66%
    10:00 +22°C° 0 mm 4 m/s 758 mmHg 60%
    11:00 +25°C° 0 mm 4 m/s 758 mmHg 53%
    12:00 +25°C° 0 mm 5 m/s 758 mmHg 52%
    13:00 +24°C° 0 mm 6 m/s 758 mmHg 51%
    14:00 +24°C° 0 mm 6 m/s 757 mmHg 51%
    15:00 +23°C° 0 mm 7 m/s 757 mmHg 55%
    16:00 +22°C° 0 mm 7 m/s 757 mmHg 60%
    17:00 +21°C° 0 mm 7 m/s 756 mmHg 64%
    18:00 +18°C° 0 mm 7 m/s 757 mmHg 69%
    19:00 +16°C° 0 mm 7 m/s 757 mmHg 73%
    20:00 +12°C° 0 mm 7 m/s 757 mmHg 78%
    21:00 +11°C° 0 mm 7 m/s 757 mmHg 80%
    22:00 +10°C° 0 mm 7 m/s 756 mmHg 81%
    23:00 +9°C° 0 mm 7 m/s 756 mmHg 83%
    Mostrar mais